{"data":{"norad_id":65702,"intl_designator":"2025-212AC","name":"STARLINK-35075","alt_names":[],"object_type":"PAYLOAD","status":"ACTIVE","operator":null,"country":"US","launch_date":"2025-09-21","launch_site_code":"AFETR","launch_vehicle":null,"mission":null,"orbit_class":"UNKNOWN","rcs_meters":null,"size_class":null,"mass_kg":null,"dimensions":null,"purposes":["comms"],"wikipedia_slug":null,"has_3d_model":false,"image_url":null,"decayed_at":null,"tle_current":{"epoch":"2026-05-24T20:01:23.200320Z","epoch_age_seconds":99618,"freshness":"FRESH","line1":"1 65702U 25212AC  26144.83429630  .00019681  00000+0  67476-3 0  9991","line2":"2 65702  53.1623 351.8410 0001184  87.0236 273.0901 15.30204978 38905","mean_motion":15.30204978,"eccentricity":0.0001184,"inclination_deg":53.1623,"raan_deg":351.841,"arg_perigee_deg":87.0236,"mean_anomaly_deg":273.0901,"bstar":0.00067476,"rev_number":3890,"period_min":94.105039566797,"perigee_km":474.38877092371,"apogee_km":476.0116411741,"semimajor_km":6853.3372060489,"source":"CELESTRAK","updated_at":"2026-05-25T13:38:20.899358Z"}}}